#timestamp,LO_Frequency,Hit,StdDev 
1645585215.5,286046995.4,N
1645585235.3,286046995.1,N
1645585255.1,286046996.9,N
1645585275.9,286046998.7,N
1645585295.7,286046998.7,N
1645585315.6,286046998.1,N
1645585335.4,286046998.3,N
1645585355.2,286046998.9,N
1645585375.1,286046997.0,N
1645585376.0,286046997.0,N
1645585395.8,286046997.1,N
1645585415.6,286046997.8,N
1645585435.5,286046997.7,N
1645585455.3,286046999.5,N
1645585475.2,286046999.2,N
1645585495.9,286046999.6,N
1645585515.7,286046995.3,N
1645585535.6,286046998.7,N
1645585555.4,286046998.2,N
1645585575.2,286046997.4,N
1645585595.1,286046999.4,N
1645585596.0,286046999.4,N
1645585615.8,286046996.8,N
1645585635.7,286046997.7,N
1645585655.5,286046997.1,N
1645585675.3,286046996.7,N
1645585695.2,286046997.3,N
1645585715.0,286046998.4,N
1645585715.9,286046998.4,N
1645585735.7,286046997.3,N
1645585755.6,286046997.6,N
1645585775.4,286046997.7,N
1645585795.3,286046998.6,N
1645585815.1,286046996.7,Y
1645585816.0,286046996.7,P
1645585835.8,286047002.1,P
1645585855.7,286047002.7,N
1645585875.5,286046999.8,N
1645585895.3,286047001.4,N
1645585915.2,286047003.2,N
1645585935.0,286047002.5,N
1645585935.9,286047002.5,N
1645585955.8,286047000.2,N
1645585975.6,286046998.1,N
1645585995.4,286047002.7,N
1645586015.3,286047002.3,N
1645586035.1,286046999.8,N
1645586055.8,286046997.0,N
1645586075.7,286047000.1,N
1645586095.5,286047004.2,N
1645586115.4,286047001.8,N
1645586135.2,286047001.8,N
1645586155.0,286047000.4,N
1645586155.9,286047000.4,N
1645586175.8,286046998.5,N
1645586195.6,286047000.1,N
1645586215.4,286047000.8,N
1645586265.3,286047002.5,E
1645586275.2,286047000.5,N
1645586295.1,286046998.6,P
1645586296.0,286046998.6,N
1645586315.8,286046998.1,N
1645586335.7,286047000.7,N
1645586355.5,286047000.3,N
1645586375.3,286046999.7,N
1645586395.2,286047000.9,N
1645586415.0,286046998.4,N
1645586415.9,286046998.4,N
1645586435.8,286046999.2,N
1645586455.6,286046997.1,N
1645586475.4,286046996.7,N
1645586495.3,286046998.5,N
1645586515.1,286047000.9,N
1645586535.8,286046999.7,N
1645586555.7,286047002.1,N
1645586575.5,286047001.6,N
1645586595.4,286047004.2,N
1645586615.2,286047001.6,N
1645586635.0,286047002.8,N
1645586635.9,286047002.8,N
1645586655.8,286047002.2,N
1645586675.6,286047001.7,N
1645586695.4,286047001.9,N
1645586715.3,286046998.2,N
1645586735.1,286046998.2,N
1645586755.9,286046999.0,N
1645586775.7,286046997.1,N
1645586795.5,286046996.6,N
1645586815.4,286046998.6,N
1645586835.2,286047000.5,N
1645586855.0,286047001.2,N
1645586855.9,286047001.2,N
1645586875.8,286046999.2,N
1645586895.6,286047001.0,N
1645586915.5,286047000.1,N
1645586935.3,286047000.5,N
1645586955.1,286047001.9,N
1645586975.9,286047000.1,N
1645586995.7,286046998.5,N
1645587015.5,286046998.7,N
1645587035.4,286046998.6,N
1645587055.2,286046998.9,N
1645587075.1,286046998.2,N
1645587076.0,286046998.2,N
1645587095.8,286047002.2,N
1645587115.6,286047002.1,N
1645587135.5,286047002.2,N
1645587155.3,286047006.0,Y
1645587175.1,286047001.5,P
1645587195.9,286047001.7,N
1645587215.7,286047001.3,N
1645587235.6,286047004.0,Y
1645587255.4,286047004.4,P
1645587275.2,286046999.9,N
1645587295.1,286047001.1,N
1645587296.0,286047001.1,N
1645587315.8,286047000.9,N
1645587335.7,286047000.6,N
1645587355.5,286046999.8,N
1645587375.3,286046999.9,N
1645587395.2,286047000.6,N
1645587415.0,286046998.8,N
1645587415.9,286046998.8,N
1645587435.7,286047000.7,N
1645587455.6,286046999.7,N
1645587475.4,286046999.9,N
1645587495.3,286047000.3,N
1645587515.1,286047000.3,N
1645587516.0,286047000.3,N
1645587535.8,286047000.3,N
1645587555.7,286046998.2,N
1645587575.5,286046998.3,N
1645587595.3,286046996.6,N
1645587615.2,286046998.4,N
1645587635.0,286047000.8,N
1645587635.9,286047000.8,N
1645587655.8,286047001.0,N
1645587675.6,286047001.1,N
1645587695.4,286047000.4,N
1645587715.3,286047000.1,N
1645587735.1,286047001.0,N
1645587755.8,286047000.4,N
1645587775.7,286046997.1,N
1645587795.5,286046997.5,N
1645587815.4,286046996.6,N
1645587835.2,286046996.5,N
1645587855.0,286046998.1,N
1645587855.9,286046998.1,N
1645587875.8,286046998.9,N
1645587895.6,286046998.7,N
1645587915.4,286046999.6,N
1645587935.3,286046999.3,N
1645587955.1,286047001.2,N
1645587975.9,286046999.3,N
1645587995.7,286046998.2,N
1645588015.5,286047000.0,N
1645588035.4,286046998.8,N
1645588055.2,286046997.0,N
1645588075.0,286046996.7,N
1645588075.9,286046996.7,N
1645588095.8,286046999.1,N
1645588115.6,286047000.2,N
1645588135.5,286046999.8,N
1645588155.3,286046999.0,N
1645588175.1,286046999.6,N
1645588195.9,286046998.6,N
1645588215.7,286046999.8,N
1645588235.5,286047000.9,N
1645588255.4,286047002.8,N
1645588275.2,286047002.7,N
1645588295.1,286047003.9,N
1645588296.0,286047003.9,N
1645588315.8,286047003.9,N
1645588335.6,286047003.5,N
1645588355.5,286047002.8,N
1645588375.3,286046998.2,N
1645588395.1,286047000.9,N
1645588415.9,286047000.8,N
1645588435.7,286047000.9,N
1645588455.6,286047000.9,N
1645588475.4,286046998.9,N
1645588495.2,286047000.4,N
1645588515.1,286047000.8,N
1645588516.0,286047000.8,N
1645588535.8,286046999.9,N
1645588555.7,286047002.4,N
1645588575.5,286047000.3,N
1645588595.3,286046999.8,N
1645588615.2,286046999.7,N
1645588635.9,286047000.2,N
1645588655.7,286047002.3,N
1645588675.6,286047002.8,N
1645588695.4,286047000.7,N
1645588715.2,286047000.0,N
1645588735.1,286047000.1,N
1645588736.0,286047000.1,N
1645588755.8,286047000.1,N
1645588775.7,286047002.4,N
1645588795.5,286047000.1,N
